| time (UTC) | temp F | wind direction | speed MPH | gust MPH | rain 1hr in | rain 24hr in | rain mn in | humidity % | barometer mb |
| 20260505164008 | 44 | 310 | 14.0 | 19.0 | 0.00 | 0.00 | 0.00 | 41 | 1013.3 |
| 20260505163508 | 44 | 313 | 10.0 | 24.0 | 0.00 | 0.00 | 0.00 | 40 | 1013.1 |
| 20260505163028 | 44 | 327 | 15.0 | 24.0 | 0.00 | 0.00 | 0.00 | 40 | 1012.8 |
| 20260505163026 | 44 | 315 | 15.0 | 24.0 | 0.00 | 0.00 | 0.00 | 39 | 1013.2 |
| 20260505162510 | 44 | 294 | 11.0 | 21.0 | 0.00 | 0.00 | 0.00 | 40 | 1013.1 |
| 20260505162011 | 44 | 303 | 12.0 | 18.0 | 0.00 | 0.00 | 0.00 | 40 | 1013.1 |
| 20260505161526 | 44 | 295 | 9.0 | 19.0 | 0.00 | 0.00 | 0.00 | 42 | 1013.0 |
| 20260505161010 | 44 | 325 | 9.0 | 19.0 | 0.00 | 0.00 | 0.00 | 42 | 1013.0 |
| 20260505160511 | 44 | 312 | 9.0 | 20.0 | 0.00 | 0.00 | 0.00 | 42 | 1012.9 |
| 20260505153035 | 46 | 351 | 11.0 | 20.0 | 0.00 | 0.00 | 0.00 | 37 | 1012.8 |
| 20260505153024 | 46 | 330 | 11.0 | 20.0 | 0.00 | 0.00 | 0.00 | 38 | 1012.5 |
| 20260505152511 | 45 | 4 | 12.0 | 20.0 | 0.00 | 0.00 | 0.00 | 39 | 1012.8 |
| 20260505152014 | 45 | 292 | 12.0 | 21.0 | 0.00 | 0.00 | 0.00 | 38 | 1012.8 |
| 20260505151529 | 45 | 312 | 8.0 | 21.0 | 0.00 | 0.00 | 0.00 | 40 | 1012.7 |
| 20260505151013 | 44 | 342 | 10.0 | 19.0 | 0.00 | 0.00 | 0.00 | 40 | 1012.8 |
| 20260505150516 | 44 | 13 | 11.0 | 19.0 | 0.00 | 0.00 | 0.00 | 43 | 1012.9 |
| 20260505140508 | 41 | 320 | 9.0 | 20.0 | 0.00 | 0.00 | 0.00 | 60 | 1012.6 |
| 20260505125007 | 35 | 286 | 6.0 | 11.0 | 0.00 | 0.00 | 0.00 | 73 | 1011.9 |
| 20260505124553 | 35 | 304 | 6.0 | 12.0 | 0.00 | 0.00 | 0.00 | 74 | 1011.6 |
| 20260505124516 | 35 | 308 | 6.0 | 12.0 | 0.00 | 0.00 | 0.00 | 73 | 1011.9 |
| 20260505124007 | 34 | 313 | 6.0 | 12.0 | 0.00 | 0.00 | 0.00 | 74 | 1011.7 |
| 20260505123509 | 34 | 313 | 6.0 | 12.0 | 0.00 | 0.00 | 0.00 | 74 | 1011.7 |
| 20260505123053 | 33 | 302 | 4.0 | 11.0 | 0.00 | 0.00 | 0.00 | 76 | 1011.4 |
| 20260505123025 | 33 | 285 | 5.0 | 11.0 | 0.00 | 0.00 | 0.00 | 75 | 1011.8 |
| 20260505122506 | 33 | 307 | 7.0 | 11.0 | 0.00 | 0.00 | 0.00 | 75 | 1011.8 |
| 20260505122008 | 32 | 260 | 5.0 | 10.0 | 0.00 | 0.00 | 0.00 | 76 | 1011.7 |
| 20260505121550 | 32 | 297 | 3.0 | 8.0 | 0.00 | 0.00 | 0.00 | 76 | 1011.3 |
| 20260505121527 | 32 | 268 | 4.0 | 8.0 | 0.00 | 0.00 | 0.00 | 76 | 1011.6 |
| 20260505121007 | 32 | 271 | 5.0 | 8.0 | 0.00 | 0.00 | 0.00 | 76 | 1011.5 |
| 20260505120514 | 32 | 305 | 4.0 | 8.0 | 0.00 | 0.00 | 0.00 | 77 | 1011.4 |
| 20260505120045 | 31 | 306 | 3.0 | 8.0 | 0.00 | 0.00 | 0.00 | 77 | 1011.1 |
| 20260505120008 | 31 | 300 | 3.0 | 8.0 | 0.00 | 0.00 | 0.00 | 77 | 1011.4 |
| 20260505115503 | 31 | 306 | 2.0 | 8.0 | 0.00 | 0.00 | 0.00 | 77 | 1011.4 |
| 20260505115007 | 31 | 314 | 3.0 | 8.0 | 0.00 | 0.00 | 0.00 | 78 | 1011.3 |
| 20260505114543 | 31 | 285 | 3.0 | 9.0 | 0.00 | 0.00 | 0.00 | 79 | 1010.9 |
| 20260505114511 | 31 | 290 | 4.0 | 9.0 | 0.00 | 0.00 | 0.00 | 78 | 1011.3 |
| 20260505114007 | 31 | 270 | 3.0 | 9.0 | 0.00 | 0.00 | 0.00 | 78 | 1011.3 |
| 20260505113505 | 30 | 296 | 4.0 | 9.0 | 0.00 | 0.00 | 0.00 | 79 | 1011.4 |
| 20260505113043 | 30 | 272 | 1.0 | 6.0 | 0.00 | 0.00 | 0.00 | 80 | 1010.8 |
| 20260505113014 | 30 | 249 | 2.0 | 7.0 | 0.00 | 0.00 | 0.00 | 79 | 1011.2 |
| 20260505112510 | 30 | 306 | 2.0 | 7.0 | 0.00 | 0.00 | 0.00 | 79 | 1011.2 |
| 20260505112006 | 30 | 250 | 3.0 | 8.0 | 0.00 | 0.00 | 0.00 | 79 | 1011.2 |
| 20260505111544 | 30 | 293 | 3.0 | 8.0 | 0.00 | 0.00 | 0.00 | 80 | 1010.7 |
| 20260505111532 | 30 | 297 | 4.0 | 8.0 | 0.00 | 0.00 | 0.00 | 79 | 1011.2 |
| 20260505111007 | 30 | 326 | 3.0 | 8.0 | 0.00 | 0.00 | 0.00 | 79 | 1011.2 |
| 20260505110508 | 30 | 311 | 4.0 | 7.0 | 0.00 | 0.00 | 0.00 | 79 | 1011.2 |
| 20260505102006 | 31 | 296 | 3.0 | 8.0 | 0.00 | 0.00 | 0.00 | 78 | 1011.2 |
| 20260505101535 | 30 | 285 | 1.0 | 5.0 | 0.00 | 0.00 | 0.00 | 79 | 1010.5 |
| 20260505101516 | 30 | 306 | 2.0 | 7.0 | 0.00 | 0.00 | 0.00 | 78 | 1011.2 |
| 20260505101011 | 30 | 278 | 2.0 | 7.0 | 0.00 | 0.00 | 0.00 | 79 | 1011.2 |
| 20260505100506 | 30 | 299 | 1.0 | 5.0 | 0.00 | 0.00 | 0.00 | 79 | 1011.2 |
| 20260505100034 | 30 | 284 | 2.0 | 4.0 | 0.00 | 0.00 | 0.00 | 79 | 1010.4 |
| 20260505100023 | 30 | 288 | 3.0 | 4.0 | 0.00 | 0.00 | 0.00 | 79 | 1011.1 |
| 20260505095510 | 30 | 302 | 2.0 | 5.0 | 0.00 | 0.00 | 0.00 | 79 | 1011.1 |
| 20260505095014 | 30 | 319 | 2.0 | 5.0 | 0.00 | 0.00 | 0.00 | 79 | 1011.1 |
| 20260505094529 | 30 | 281 | 2.0 | 5.0 | 0.00 | 0.00 | 0.00 | 79 | 1010.5 |
| 20260505094526 | 30 | 295 | 2.0 | 5.0 | 0.00 | 0.00 | 0.00 | 79 | 1011.2 |
| 20260505094010 | 30 | 296 | 2.0 | 6.0 | 0.00 | 0.00 | 0.00 | 79 | 1011.0 |
| 20260505093509 | 30 | 309 | 3.0 | 6.0 | 0.00 | 0.00 | 0.00 | 78 | 1010.9 |
| 20260505093033 | 30 | 300 | 2.0 | 6.0 | 0.00 | 0.00 | 0.00 | 79 | 1010.2 |
| 20260505093027 | 30 | 294 | 3.0 | 6.0 | 0.00 | 0.00 | 0.00 | 78 | 1010.8 |
| 20260505092509 | 30 | 302 | 3.0 | 6.0 | 0.00 | 0.00 | 0.00 | 78 | 1010.8 |
| 20260505092006 | 30 | 271 | 2.0 | 5.0 | 0.00 | 0.00 | 0.00 | 77 | 1010.8 |
| 20260505091523 | 30 | 304 | 2.0 | 6.0 | 0.00 | 0.00 | 0.00 | 77 | 1010.2 |
| 20260505091516 | 30 | 294 | 3.0 | 6.0 | 0.00 | 0.00 | 0.00 | 77 | 1010.8 |
| 20260505091005 | 30 | 297 | 3.0 | 6.0 | 0.00 | 0.00 | 0.00 | 77 | 1010.8 |
| 20260505090506 | 30 | 322 | 3.0 | 6.0 | 0.00 | 0.00 | 0.00 | 76 | 1010.9 |
| 20260505090026 | 31 | 300 | 2.0 | 7.0 | 0.00 | 0.00 | 0.00 | 77 | 1010.1 |
| 20260505090021 | 31 | 300 | 3.0 | 7.0 | 0.00 | 0.00 | 0.00 | 76 | 1010.8 |
| 20260505085506 | 30 | 303 | 3.0 | 7.0 | 0.00 | 0.00 | 0.00 | 76 | 1010.8 |
| 20260505085007 | 30 | 298 | 2.0 | 3.0 | 0.00 | 0.00 | 0.00 | 77 | 1010.8 |
| 20260505084526 | 30 | 297 | 1.0 | 3.0 | 0.00 | 0.00 | 0.00 | 77 | 1010.1 |
| 20260505084521 | 30 | 266 | 1.0 | 6.0 | 0.00 | 0.00 | 0.00 | 76 | 1010.8 |
| 20260505084010 | 31 | 238 | 1.0 | 6.0 | 0.00 | 0.00 | 0.00 | 76 | 1010.7 |
| 20260505083514 | 31 | 285 | 2.0 | 6.0 | 0.00 | 0.00 | 0.00 | 75 | 1010.7 |
| 20260505083023 | 31 | 295 | 3.0 | 8.0 | 0.00 | 0.00 | 0.00 | 75 | 1010.6 |
| 20260505083017 | 31 | 302 | 3.0 | 6.0 | 0.00 | 0.00 | 0.00 | 76 | 1009.9 |
| 20260505082510 | 31 | 308 | 3.0 | 8.0 | 0.00 | 0.00 | 0.00 | 76 | 1010.5 |
| 20260505082010 | 31 | 300 | 3.0 | 8.0 | 0.00 | 0.00 | 0.00 | 77 | 1010.4 |
| 20260505081526 | 31 | 311 | 2.0 | 4.0 | 0.00 | 0.00 | 0.00 | 77 | 1010.3 |
| 20260505081515 | 31 | 311 | 1.0 | 4.0 | 0.00 | 0.00 | 0.00 | 77 | 1009.7 |
| 20260505081009 | 31 | 283 | 0.0 | 4.0 | 0.00 | 0.00 | 0.00 | 76 | 1010.4 |
| 20260505080508 | 31 | 316 | 1.0 | 4.0 | 0.00 | 0.00 | 0.00 | 76 | 1010.4 |
| 20260505080023 | 31 | 314 | 1.0 | 4.0 | 0.00 | 0.00 | 0.00 | 76 | 1009.7 |
| 20260505080016 | 31 | 314 | 2.0 | 5.0 | 0.00 | 0.00 | 0.00 | 76 | 1010.4 |
| 20260505075506 | 31 | 319 | 1.0 | 5.0 | 0.00 | 0.00 | 0.00 | 75 | 1010.3 |
| 20260505075007 | 31 | 300 | 3.0 | 5.0 | 0.00 | 0.00 | 0.00 | 75 | 1010.3 |
| 20260505074520 | 31 | 283 | 2.0 | 5.0 | 0.00 | 0.00 | 0.00 | 75 | 1010.3 |
| 20260505074510 | 31 | 312 | 1.0 | 5.0 | 0.00 | 0.00 | 0.00 | 75 | 1009.5 |
| 20260505074007 | 31 | 323 | 2.0 | 5.0 | 0.00 | 0.00 | 0.00 | 74 | 1010.2 |
| 20260505073511 | 32 | 308 | 3.0 | 6.0 | 0.00 | 0.00 | 0.00 | 73 | 1010.2 |
| 20260505073022 | 32 | 324 | 3.0 | 9.0 | 0.00 | 0.00 | 0.00 | 72 | 1010.3 |
| 20260505073008 | 32 | 309 | 3.0 | 9.0 | 0.00 | 0.00 | 0.00 | 73 | 1009.4 |
| 20260505072507 | 33 | 299 | 3.0 | 9.0 | 0.00 | 0.00 | 0.00 | 71 | 1010.2 |
| 20260505072008 | 33 | 284 | 4.0 | 6.0 | 0.00 | 0.00 | 0.00 | 70 | 1010.2 |
| 20260505071527 | 33 | 286 | 3.0 | 6.0 | 0.00 | 0.00 | 0.00 | 70 | 1010.2 |
| 20260505071504 | 33 | 308 | 2.0 | 6.0 | 0.00 | 0.00 | 0.00 | 70 | 1009.3 |
| 20260505071011 | 34 | 313 | 3.0 | 7.0 | 0.00 | 0.00 | 0.00 | 70 | 1010.2 |
| 20260505070510 | 34 | 281 | 2.0 | 7.0 | 0.00 | 0.00 | 0.00 | 69 | 1010.2 |
| 20260505070012 | 34 | 295 | 1.0 | 6.0 | 0.00 | 0.00 | 0.00 | 69 | 1010.3 |
| 20260505070002 | 34 | 295 | 1.0 | 6.0 | 0.00 | 0.00 | 0.00 | 70 | 1009.4 |
| 20260505065503 | 34 | 314 | 3.0 | 7.0 | 0.00 | 0.00 | 0.00 | 69 | 1010.3 |
| 20260505065005 | 34 | 295 | 2.0 | 7.0 | 0.00 | 0.00 | 0.00 | 69 | 1010.3 |
| 20260505064559 | 34 | 292 | 2.0 | 7.0 | 0.00 | 0.00 | 0.00 | 69 | 1009.4 |
| 20260505064522 | 34 | 293 | 2.0 | 5.0 | 0.00 | 0.00 | 0.00 | 68 | 1010.4 |
| 20260505064010 | 35 | 325 | 2.0 | 6.0 | 0.00 | 0.00 | 0.00 | 68 | 1010.3 |
| 20260505063505 | 35 | 293 | 3.0 | 6.0 | 0.00 | 0.00 | 0.00 | 67 | 1010.3 |
| 20260505063057 | 35 | 307 | 1.0 | 7.0 | 0.00 | 0.00 | 0.00 | 67 | 1009.4 |
| 20260505063022 | 35 | 304 | 2.0 | 7.0 | 0.00 | 0.00 | 0.00 | 67 | 1010.4 |
| 20260505062510 | 35 | 298 | 3.0 | 7.0 | 0.00 | 0.00 | 0.00 | 66 | 1010.4 |
| 20260505062006 | 36 | 308 | 4.0 | 6.0 | 0.00 | 0.00 | 0.00 | 66 | 1010.4 |
| 20260505061613 | 36 | 306 | 3.0 | 6.0 | 0.00 | 0.00 | 0.00 | 67 | 1009.3 |
| 20260505061524 | 36 | 306 | 3.0 | 6.0 | 0.00 | 0.00 | 0.00 | 67 | 1010.4 |
| 20260505061007 | 35 | 241 | 1.0 | 4.0 | 0.00 | 0.00 | 0.00 | 67 | 1010.3 |
| 20260505060510 | 36 | 243 | 1.0 | 2.0 | 0.00 | 0.00 | 0.00 | 66 | 1010.3 |
| 20260505060056 | 36 | 261 | 0.0 | 2.0 | 0.00 | 0.00 | 0.00 | 66 | 1009.1 |
| 20260505060010 | 36 | 261 | 0.0 | 5.0 | 0.00 | 0.00 | 0.00 | 65 | 1010.1 |
| 20260505055504 | 36 | 310 | 1.0 | 5.0 | 0.00 | 0.00 | 0.00 | 64 | 1010.1 |
| 20260505055004 | 37 | 299 | 2.0 | 7.0 | 0.00 | 0.00 | 0.00 | 63 | 1010.0 |
| 20260505054551 | 37 | 253 | 3.0 | 7.0 | 0.00 | 0.00 | 0.00 | 63 | 1009.0 |
| 20260505054520 | 37 | 316 | 4.0 | 7.0 | 0.00 | 0.00 | 0.00 | 63 | 1010.0 |
| 20260505054006 | 37 | 271 | 2.0 | 6.0 | 0.00 | 0.00 | 0.00 | 63 | 1010.0 |
| 20260505053511 | 37 | 304 | 2.0 | 6.0 | 0.00 | 0.00 | 0.00 | 63 | 1009.9 |
| 20260505053045 | 37 | 307 | 1.0 | 5.0 | 0.00 | 0.00 | 0.00 | 63 | 1008.9 |
| 20260505053016 | 37 | 296 | 1.0 | 6.0 | 0.00 | 0.00 | 0.00 | 62 | 1010.0 |
| 20260505052506 | 37 | 316 | 1.0 | 6.0 | 0.00 | 0.00 | 0.00 | 62 | 1009.9 |
| 20260505052006 | 37 | 321 | 1.0 | 6.0 | 0.00 | 0.00 | 0.00 | 62 | 1009.9 |
| 20260505051543 | 38 | 293 | 1.0 | 8.0 | 0.00 | 0.00 | 0.00 | 61 | 1008.8 |
| 20260505051520 | 38 | 263 | 2.0 | 8.0 | 0.00 | 0.00 | 0.00 | 61 | 1009.8 |
| 20260505051007 | 38 | 296 | 4.0 | 8.0 | 0.00 | 0.00 | 0.00 | 61 | 1009.9 |
| 20260505050508 | 37 | 314 | 4.0 | 7.0 | 0.00 | 0.00 | 0.00 | 62 | 1009.9 |
| 20260505041532 | 39 | 316 | 1.0 | 4.0 | 0.00 | 0.00 | 0.00 | 60 | 1008.7 |
| 20260505041518 | 39 | 304 | 1.0 | 4.0 | 0.00 | 0.00 | 0.00 | 60 | 1009.8 |
| 20260505041006 | 40 | 274 | 1.0 | 4.0 | 0.00 | 0.00 | 0.00 | 59 | 1009.8 |
| 20260505040507 | 40 | 278 | 1.0 | 5.0 | 0.00 | 0.00 | 0.00 | 59 | 1009.8 |
| 20260505040040 | 40 | 278 | 0.0 | 5.0 | 0.00 | 0.00 | 0.00 | 60 | 1008.6 |
| 20260505040025 | 40 | 283 | 1.0 | 5.0 | 0.00 | 0.00 | 0.00 | 60 | 1009.8 |
| 20260505035509 | 40 | 294 | 1.0 | 4.0 | 0.00 | 0.00 | 0.00 | 59 | 1009.7 |
| 20260505035008 | 39 | 300 | 0.0 | 2.0 | 0.00 | 0.00 | 0.00 | 60 | 1009.7 |
| 20260505034538 | 39 | 266 | 0.0 | 1.0 | 0.00 | 0.00 | 0.00 | 61 | 1008.4 |
| 20260505034528 | 39 | 266 | 0.0 | 1.0 | 0.00 | 0.00 | 0.00 | 61 | 1009.7 |
| 20260505034009 | 39 | 288 | 0.0 | 2.0 | 0.00 | 0.00 | 0.00 | 61 | 1009.8 |
| 20260505033509 | 39 | 314 | 1.0 | 4.0 | 0.00 | 0.00 | 0.00 | 60 | 1009.8 |
| 20260505033031 | 40 | 310 | 3.0 | 4.0 | 0.00 | 0.00 | 0.00 | 58 | 1009.9 |
| 20260505033028 | 40 | 311 | 2.0 | 4.0 | 0.00 | 0.00 | 0.00 | 59 | 1008.5 |
| 20260505032504 | 40 | 311 | 3.0 | 4.0 | 0.00 | 0.00 | 0.00 | 57 | 1009.8 |
| 20260505032004 | 41 | 315 | 2.0 | 4.0 | 0.00 | 0.00 | 0.00 | 57 | 1009.8 |
| 20260505031526 | 41 | 306 | 2.0 | 4.0 | 0.00 | 0.00 | 0.00 | 57 | 1008.3 |
| 20260505031516 | 41 | 309 | 2.0 | 4.0 | 0.00 | 0.00 | 0.00 | 56 | 1009.6 |
| 20260505031007 | 42 | 310 | 2.0 | 3.0 | 0.00 | 0.00 | 0.00 | 55 | 1009.6 |
| 20260505030507 | 43 | 318 | 2.0 | 5.0 | 0.00 | 0.00 | 0.00 | 54 | 1009.6 |
| 20260505030037 | 43 | 301 | 3.0 | 6.0 | 0.00 | 0.00 | 0.00 | 53 | 1009.5 |
| 20260505030020 | 43 | 309 | 2.0 | 5.0 | 0.00 | 0.00 | 0.00 | 54 | 1008.1 |
| 20260505025508 | 44 | 306 | 4.0 | 9.0 | 0.00 | 0.00 | 0.00 | 52 | 1009.5 |
| 20260505025006 | 45 | 298 | 4.0 | 9.0 | 0.00 | 0.00 | 0.00 | 51 | 1009.4 |
| 20260505024525 | 45 | 330 | 4.0 | 12.0 | 0.00 | 0.00 | 0.00 | 50 | 1009.2 |
| 20260505024517 | 45 | 338 | 3.0 | 12.0 | 0.00 | 0.00 | 0.00 | 50 | 1007.8 |
| 20260505024009 | 46 | 321 | 5.0 | 12.0 | 0.00 | 0.00 | 0.00 | 49 | 1009.2 |
| 20260505023507 | 46 | 328 | 5.0 | 11.0 | 0.00 | 0.00 | 0.00 | 48 | 1009.1 |
| 20260505023027 | 46 | 315 | 6.0 | 10.0 | 0.00 | 0.00 | 0.00 | 49 | 1009.0 |
| 20260505023015 | 46 | 335 | 6.0 | 10.0 | 0.00 | 0.00 | 0.00 | 49 | 1007.6 |
| 20260505022509 | 46 | 338 | 6.0 | 9.0 | 0.00 | 0.00 | 0.00 | 49 | 1008.9 |
| 20260505022008 | 46 | 312 | 3.0 | 10.0 | 0.00 | 0.00 | 0.00 | 49 | 1008.8 |
| 20260505021531 | 47 | 5 | 5.0 | 10.0 | 0.00 | 0.00 | 0.00 | 49 | 1008.7 |
| 20260505021513 | 47 | 3 | 5.0 | 10.0 | 0.00 | 0.00 | 0.00 | 49 | 1007.2 |
| 20260505021002 | 47 | 309 | 4.0 | 10.0 | 0.00 | 0.00 | 0.00 | 49 | 1008.6 |
| 20260505020504 | 47 | 1 | 5.0 | 10.0 | 0.00 | 0.00 | 0.00 | 48 | 1008.5 |
| 20260505020018 | 47 | 317 | 4.0 | 8.0 | 0.00 | 0.00 | 0.00 | 48 | 1008.6 |
| 20260505020013 | 47 | 295 | 3.0 | 8.0 | 0.00 | 0.00 | 0.00 | 48 | 1007.0 |
| 20260505015507 | 47 | 341 | 3.0 | 8.0 | 0.00 | 0.00 | 0.00 | 47 | 1008.5 |
| 20260505015007 | 48 | 320 | 5.0 | 11.0 | 0.00 | 0.00 | 0.00 | 47 | 1008.3 |
| 20260505014524 | 48 | 316 | 6.0 | 11.0 | 0.00 | 0.00 | 0.00 | 46 | 1008.3 |
| 20260505014508 | 48 | 316 | 5.0 | 11.0 | 0.00 | 0.00 | 0.00 | 47 | 1006.9 |
| 20260505014006 | 48 | 306 | 6.0 | 11.0 | 0.00 | 0.00 | 0.00 | 46 | 1008.2 |
| 20260505013509 | 48 | 316 | 6.0 | 13.0 | 0.00 | 0.00 | 0.00 | 46 | 1008.1 |
| 20260505013023 | 48 | 10 | 7.0 | 15.0 | 0.00 | 0.00 | 0.00 | 45 | 1008.0 |
| 20260505013006 | 48 | 22 | 6.0 | 14.0 | 0.00 | 0.00 | 0.00 | 45 | 1006.7 |
| 20260505012507 | 49 | 13 | 7.0 | 17.0 | 0.00 | 0.00 | 0.00 | 45 | 1008.0 |
| 20260505012010 | 49 | 309 | 9.0 | 19.0 | 0.00 | 0.00 | 0.00 | 43 | 1007.9 |
| 20260505011524 | 49 | 318 | 11.0 | 19.0 | 0.00 | 0.00 | 0.00 | 43 | 1007.8 |
| 20260505011505 | 49 | 340 | 11.0 | 19.0 | 0.00 | 0.00 | 0.00 | 43 | 1006.4 |
| 20260505011010 | 49 | 311 | 11.0 | 17.0 | 0.00 | 0.00 | 0.00 | 43 | 1007.8 |
| 20260505010508 | 49 | 312 | 10.0 | 17.0 | 0.00 | 0.00 | 0.00 | 42 | 1007.8 |
| 20260505010029 | 49 | 322 | 10.0 | 18.0 | 0.00 | 0.00 | 0.00 | 42 | 1007.7 |
| 20260505010004 | 49 | 322 | 10.0 | 18.0 | 0.00 | 0.00 | 0.00 | 43 | 1006.2 |
| 20260505005507 | 49 | 303 | 10.0 | 18.0 | 0.00 | 0.00 | 0.00 | 41 | 1007.7 |
| 20260505005004 | 50 | 300 | 9.0 | 19.0 | 0.00 | 0.00 | 0.00 | 41 | 1007.7 |
| 20260505004530 | 50 | 314 | 9.0 | 19.0 | 0.00 | 0.00 | 0.00 | 41 | 1007.7 |
| 20260505004502 | 50 | 314 | 9.0 | 19.0 | 0.00 | 0.00 | 0.00 | 42 | 1006.0 |
| 20260505004006 | 50 | 318 | 8.0 | 15.0 | 0.00 | 0.00 | 0.00 | 42 | 1007.6 |
| 20260505003509 | 50 | 309 | 10.0 | 17.0 | 0.00 | 0.00 | 0.00 | 41 | 1007.6 |
| 20260505003100 | 50 | 322 | 10.0 | 17.0 | 0.00 | 0.00 | 0.00 | 42 | 1006.0 |
| 20260505003022 | 50 | 327 | 11.0 | 17.0 | 0.00 | 0.00 | 0.00 | 41 | 1007.6 |
| 20260505002508 | 50 | 319 | 10.0 | 17.0 | 0.00 | 0.00 | 0.00 | 40 | 1007.6 |
| 20260505002007 | 50 | 316 | 10.0 | 18.0 | 0.00 | 0.00 | 0.00 | 39 | 1007.6 |
| 20260505001601 | 50 | 316 | 10.0 | 21.0 | 0.00 | 0.00 | 0.00 | 40 | 1006.0 |
| 20260505001527 | 50 | 359 | 12.0 | 21.0 | 0.00 | 0.00 | 0.00 | 39 | 1007.6 |
| 20260505001010 | 50 | 292 | 12.0 | 21.0 | 0.00 | 0.00 | 0.00 | 38 | 1007.6 |
| 20260505000516 | 51 | 292 | 10.0 | 19.0 | 0.00 | 0.00 | 0.00 | 38 | 1007.6 |
| 20260505000108 | 51 | 354 | 8.0 | 19.0 | 0.00 | 0.00 | 0.00 | 39 | 1005.9 |
| 20260505000033 | 51 | 336 | 9.0 | 21.0 | 0.00 | 0.00 | 0.00 | 39 | 1007.6 |
| 20260504235507 | 51 | 347 | 12.0 | 25.0 | 0.00 | 0.00 | 0.00 | 37 | 1007.7 |
| 20260504235003 | 51 | 308 | 13.0 | 25.0 | 0.00 | 0.00 | 0.00 | 37 | 1007.6 |
| 20260504234611 | 52 | 300 | 13.0 | 25.0 | 0.00 | 0.00 | 0.00 | 36 | 1005.8 |
| 20260504234518 | 52 | 320 | 10.0 | 20.0 | 0.00 | 0.00 | 0.00 | 36 | 1007.5 |
| 20260504234007 | 52 | 293 | 12.0 | 25.0 | 0.00 | 0.00 | 0.00 | 36 | 1007.5 |
| 20260504233507 | 52 | 313 | 14.0 | 25.0 | 0.00 | 0.00 | 0.00 | 34 | 1007.5 |
| 20260504233058 | 53 | 290 | 13.0 | 24.0 | 0.00 | 0.00 | 0.00 | 35 | 1005.8 |
| 20260504233022 | 53 | 292 | 12.0 | 24.0 | 0.00 | 0.00 | 0.00 | 35 | 1007.5 |
| 20260504232507 | 53 | 343 | 17.0 | 24.0 | 0.00 | 0.00 | 0.00 | 34 | 1007.5 |
| 20260504232011 | 52 | 300 | 13.0 | 20.0 | 0.00 | 0.00 | 0.00 | 35 | 1007.4 |
| 20260504231556 | 52 | 312 | 13.0 | 22.0 | 0.00 | 0.00 | 0.00 | 36 | 1005.7 |
| 20260504231521 | 52 | 321 | 13.0 | 22.0 | 0.00 | 0.00 | 0.00 | 36 | 1007.3 |
| 20260504231010 | 53 | 296 | 10.0 | 22.0 | 0.00 | 0.00 | 0.00 | 36 | 1007.3 |
| 20260504230506 | 53 | 294 | 13.0 | 23.0 | 0.00 | 0.00 | 0.00 | 35 | 1007.3 |
| 20260504230055 | 53 | 303 | 11.0 | 23.0 | 0.00 | 0.00 | 0.00 | 36 | 1005.6 |
| 20260504230025 | 53 | 316 | 14.0 | 23.0 | 0.00 | 0.00 | 0.00 | 35 | 1007.3 |
| 20260504225511 | 52 | 325 | 16.0 | 23.0 | 0.00 | 0.00 | 0.00 | 34 | 1007.2 |
| 20260504225003 | 52 | 297 | 11.0 | 26.0 | 0.00 | 0.00 | 0.00 | 35 | 1007.1 |
| 20260504224555 | 53 | 305 | 16.0 | 26.0 | 0.00 | 0.00 | 0.00 | 34 | 1005.5 |
| 20260504224510 | 53 | 317 | 19.0 | 26.0 | 0.00 | 0.00 | 0.00 | 33 | 1007.0 |
| 20260504224004 | 53 | 294 | 10.0 | 22.0 | 0.00 | 0.00 | 0.00 | 34 | 1007.0 |
| 20260504223507 | 53 | 307 | 12.0 | 22.0 | 0.00 | 0.00 | 0.00 | 35 | 1007.0 |
| 20260504223056 | 52 | 352 | 12.0 | 22.0 | 0.00 | 0.00 | 0.00 | 35 | 1005.3 |
| 20260504223019 | 52 | 287 | 15.0 | 22.0 | 0.00 | 0.00 | 0.00 | 34 | 1007.0 |
| 20260504222509 | 52 | 347 | 11.0 | 24.0 | 0.00 | 0.00 | 0.00 | 35 | 1007.1 |
| 20260504222008 | 52 | 318 | 11.0 | 24.0 | 0.00 | 0.00 | 0.00 | 36 | 1007.0 |
| 20260504221552 | 52 | 316 | 15.0 | 24.0 | 0.00 | 0.00 | 0.00 | 34 | 1005.2 |
| 20260504221527 | 53 | 315 | 13.0 | 23.0 | 0.00 | 0.00 | 0.00 | 33 | 1006.8 |
| 20260504221009 | 53 | 300 | 13.0 | 23.0 | 0.00 | 0.00 | 0.00 | 33 | 1006.8 |
| 20260504220510 | 52 | 290 | 13.0 | 20.0 | 0.00 | 0.00 | 0.00 | 34 | 1006.8 |
| 20260504220058 | 52 | 302 | 13.0 | 21.0 | 0.00 | 0.00 | 0.00 | 35 | 1005.2 |
| 20260504220024 | 52 | 339 | 13.0 | 21.0 | 0.00 | 0.00 | 0.00 | 35 | 1006.9 |
| 20260504215507 | 52 | 317 | 12.0 | 21.0 | 0.00 | 0.00 | 0.00 | 35 | 1006.8 |
| 20260504215013 | 52 | 304 | 11.0 | 22.0 | 0.00 | 0.00 | 0.00 | 34 | 1006.9 |
| 20260504214550 | 52 | 304 | 15.0 | 22.0 | 0.00 | 0.00 | 0.00 | 34 | 1005.1 |
| 20260504214526 | 52 | 311 | 16.0 | 22.0 | 0.00 | 0.00 | 0.00 | 33 | 1006.9 |
| 20260504214009 | 53 | 305 | 11.0 | 23.0 | 0.00 | 0.00 | 0.00 | 33 | 1006.9 |
| 20260504213504 | 53 | 293 | 13.0 | 24.0 | 0.00 | 0.00 | 0.00 | 33 | 1006.7 |
| 20260504213107 | 53 | 312 | 14.0 | 24.0 | 0.00 | 0.00 | 0.00 | 35 | 1005.1 |
| 20260504213029 | 52 | 319 | 16.0 | 24.0 | 0.00 | 0.00 | 0.00 | 34 | 1006.9 |
| 20260504212507 | 52 | 297 | 13.0 | 23.0 | 0.00 | 0.00 | 0.00 | 34 | 1006.9 |
| 20260504212005 | 52 | 312 | 15.0 | 24.0 | 0.00 | 0.00 | 0.00 | 35 | 1007.0 |
| 20260504211548 | 53 | 291 | 14.0 | 24.0 | 0.00 | 0.00 | 0.00 | 35 | 1005.2 |
| 20260504211518 | 53 | 327 | 15.0 | 24.0 | 0.00 | 0.00 | 0.00 | 35 | 1007.0 |
| 20260504211007 | 52 | 302 | 13.0 | 24.0 | 0.00 | 0.00 | 0.00 | 35 | 1007.1 |
| 20260504210511 | 52 | 323 | 12.0 | 22.0 | 0.00 | 0.00 | 0.00 | 35 | 1007.1 |
| 20260504210048 | 52 | 293 | 12.0 | 23.0 | 0.00 | 0.00 | 0.00 | 36 | 1005.4 |
| 20260504210022 | 52 | 288 | 13.0 | 28.0 | 0.00 | 0.00 | 0.00 | 36 | 1007.2 |
| 20260504205507 | 52 | 295 | 12.0 | 28.0 | 0.00 | 0.00 | 0.00 | 35 | 1007.3 |
| 20260504205009 | 52 | 329 | 13.0 | 26.0 | 0.00 | 0.00 | 0.00 | 36 | 1007.2 |
| 20260504204555 | 51 | 319 | 18.0 | 26.0 | 0.00 | 0.00 | 0.00 | 35 | 1005.4 |
| 20260504204525 | 51 | 302 | 18.0 | 26.0 | 0.00 | 0.00 | 0.00 | 36 | 1007.3 |
| 20260504204010 | 52 | 323 | 13.0 | 26.0 | 0.00 | 0.00 | 0.00 | 36 | 1007.4 |
| 20260504203508 | 52 | 302 | 12.0 | 27.0 | 0.00 | 0.00 | 0.00 | 35 | 1007.4 |
| 20260504203048 | 51 | 300 | 11.0 | 27.0 | 0.00 | 0.00 | 0.00 | 37 | 1005.5 |
| 20260504203026 | 51 | 337 | 12.0 | 27.0 | 0.00 | 0.00 | 0.00 | 36 | 1007.4 |
| 20260504202508 | 51 | 312 | 12.0 | 22.0 | 0.00 | 0.00 | 0.00 | 37 | 1007.4 |
| 20260504202004 | 51 | 308 | 10.0 | 26.0 | 0.00 | 0.00 | 0.00 | 37 | 1007.6 |
| 20260504201545 | 51 | 297 | 8.0 | 26.0 | 0.00 | 0.00 | 0.00 | 38 | 1005.7 |
| 20260504201516 | 51 | 279 | 11.0 | 26.0 | 0.00 | 0.00 | 0.00 | 38 | 1007.6 |
| 20260504201008 | 51 | 324 | 12.0 | 22.0 | 0.00 | 0.00 | 0.00 | 37 | 1007.5 |
| 20260504200507 | 51 | 301 | 12.0 | 22.0 | 0.00 | 0.00 | 0.00 | 38 | 1007.5 |
| 20260504200045 | 50 | 309 | 13.0 | 22.0 | 0.00 | 0.00 | 0.00 | 38 | 1005.6 |
| 20260504200021 | 51 | 348 | 14.0 | 24.0 | 0.00 | 0.00 | 0.00 | 38 | 1007.4 |
| 20260504195507 | 51 | 333 | 12.0 | 25.0 | 0.00 | 0.00 | 0.00 | 37 | 1007.4 |
| 20260504195011 | 51 | 314 | 14.0 | 25.0 | 0.00 | 0.00 | 0.00 | 37 | 1007.4 |
| 20260504194543 | 52 | 314 | 10.0 | 22.0 | 0.00 | 0.00 | 0.00 | 38 | 1005.5 |
| 20260504194526 | 52 | 326 | 11.0 | 24.0 | 0.00 | 0.00 | 0.00 | 37 | 1007.4 |
| 20260504194007 | 51 | 285 | 16.0 | 25.0 | 0.00 | 0.00 | 0.00 | 36 | 1007.2 |
| 20260504193507 | 51 | 298 | 13.0 | 27.0 | 0.00 | 0.00 | 0.00 | 37 | 1007.1 |
| 20260504193054 | 51 | 335 | 18.0 | 27.0 | 0.00 | 0.00 | 0.00 | 38 | 1005.3 |
| 20260504193025 | 50 | 333 | 19.0 | 27.0 | 0.00 | 0.00 | 0.00 | 38 | 1007.4 |
| 20260504192510 | 52 | 307 | 17.0 | 26.0 | 0.00 | 0.00 | 0.00 | 36 | 1007.2 |
| 20260504192014 | 52 | 302 | 13.0 | 23.0 | 0.00 | 0.00 | 0.00 | 38 | 1007.1 |
| 20260504191540 | 51 | 305 | 10.0 | 26.0 | 0.00 | 0.00 | 0.00 | 40 | 1005.1 |
| 20260504191537 | 51 | 267 | 12.0 | 26.0 | 0.00 | 0.00 | 0.00 | 40 | 1007.2 |
| 20260504191009 | 50 | 325 | 13.0 | 26.0 | 0.00 | 0.00 | 0.00 | 38 | 1007.2 |
| 20260504190508 | 50 | 308 | 17.0 | 24.0 | 0.00 | 0.00 | 0.00 | 41 | 1007.3 |
| 20260504190042 | 50 | 295 | 12.0 | 24.0 | 0.00 | 0.00 | 0.00 | 41 | 1005.2 |
| 20260504190020 | 50 | 311 | 13.0 | 24.0 | 0.00 | 0.00 | 0.00 | 40 | 1007.3 |
| 20260504185507 | 50 | 294 | 15.0 | 24.0 | 0.00 | 0.00 | 0.00 | 41 | 1007.3 |
| 20260504185009 | 50 | 316 | 15.0 | 26.0 | 0.00 | 0.00 | 0.00 | 42 | 1007.3 |
| 20260504184542 | 49 | 321 | 16.0 | 26.0 | 0.00 | 0.00 | 0.00 | 45 | 1005.2 |
| 20260504184538 | 49 | 293 | 18.0 | 26.0 | 0.00 | 0.00 | 0.00 | 43 | 1007.3 |
| 20260504184013 | 49 | 293 | 14.0 | 24.0 | 0.00 | 0.00 | 0.00 | 43 | 1007.3 |
| 20260504183512 | 50 | 327 | 15.0 | 24.0 | 0.00 | 0.00 | 0.00 | 46 | 1007.3 |
| 20260504183044 | 49 | 311 | 15.0 | 25.0 | 0.00 | 0.00 | 0.00 | 47 | 1005.2 |
| 20260504183026 | 49 | 319 | 15.0 | 25.0 | 0.00 | 0.00 | 0.00 | 45 | 1007.2 |
| 20260504182512 | 49 | 344 | 15.0 | 25.0 | 0.00 | 0.00 | 0.00 | 47 | 1007.2 |
| 20260504182011 | 49 | 316 | 13.0 | 24.0 | 0.00 | 0.00 | 0.00 | 46 | 1007.2 |
| 20260504181537 | 49 | 292 | 15.0 | 24.0 | 0.00 | 0.00 | 0.00 | 50 | 1005.1 |
| 20260504181526 | 49 | 294 | 15.0 | 24.0 | 0.00 | 0.00 | 0.00 | 48 | 1007.1 |
| 20260504181009 | 49 | 288 | 17.0 | 24.0 | 0.00 | 0.00 | 0.00 | 49 | 1007.1 |
| 20260504180511 | 49 | 320 | 15.0 | 26.0 | 0.00 | 0.00 | 0.00 | 49 | 1007.1 |
| 20260504180043 | 49 | 299 | 16.0 | 26.0 | 0.00 | 0.00 | 0.00 | 51 | 1004.9 |
| 20260504180034 | 49 | 318 | 16.0 | 26.0 | 0.00 | 0.00 | 0.00 | 50 | 1007.0 |
| 20260504175510 | 49 | 340 | 15.0 | 28.0 | 0.00 | 0.00 | 0.00 | 52 | 1007.0 |
| 20260504175008 | 49 | 306 | 18.0 | 28.0 | 0.00 | 0.00 | 0.00 | 49 | 1006.9 |
| 20260504174531 | 49 | 327 | 12.0 | 24.0 | 0.00 | 0.00 | 0.00 | 48 | 1004.7 |
| 20260504174518 | 50 | 328 | 13.0 | 26.0 | 0.00 | 0.00 | 0.00 | 48 | 1006.8 |
| 20260504174007 | 50 | 321 | 19.0 | 27.0 | 0.00 | 0.00 | 0.00 | 47 | 1006.7 |
| 20260504173507 | 49 | 317 | 13.0 | 27.0 | 0.00 | 0.00 | 0.00 | 47 | 1006.7 |
| 20260504173031 | 50 | 303 | 12.0 | 25.0 | 0.00 | 0.00 | 0.00 | 49 | 1004.5 |
| 20260504173023 | 50 | 346 | 12.0 | 25.0 | 0.00 | 0.00 | 0.00 | 47 | 1006.6 |
| 20260504172506 | 50 | 308 | 14.0 | 26.0 | 0.00 | 0.00 | 0.00 | 48 | 1006.7 |
| 20260504172012 | 49 | 14 | 17.0 | 26.0 | 0.00 | 0.00 | 0.00 | 48 | 1006.6 |
| 20260504171530 | 49 | 273 | 14.0 | 26.0 | 0.00 | 0.00 | 0.00 | 48 | 1004.5 |
| 20260504171526 | 49 | 304 | 16.0 | 26.0 | 0.00 | 0.00 | 0.00 | 48 | 1006.7 |
| 20260504171011 | 50 | 310 | 12.0 | 28.0 | 0.00 | 0.00 | 0.00 | 48 | 1006.7 |
| 20260504170504 | 49 | 307 | 14.0 | 28.0 | 0.00 | 0.00 | 0.00 | 47 | 1006.5 |